sat.trackr.live / text

‹ back to catalog

COSMOS 2509 (RODNIK-S *)

NORAD 40922 · 2015-050C

PAYLOAD ACTIVE UNKNOWN

§ Identity

Operator
Country
CIS
Launch date
2015-09-23
Launch site
PLMSC
Launch vehicle
Mass (kg)
RCS (m²)
1.50

External: N2YO · Heavens-Above · Gunter

§ Orbital elements

Epoch: 2026-09-20T04:39:40.016160Z

Period
115.86 min
Inclination
82.4927°
Eccentricity
0.0014681
Mean motion
12.42887156 rev/d
Perigee alt
1,482.8 km
Apogee alt
1,505.9 km
Semi-major
7,872.5 km
B*
5.8824e-4
RAAN
19.0852°
Arg perigee
190.2935°
Mean anomaly
169.7846°
Rev number
49,868

§ Raw data

COSMOS 2509 (RODNIK-S *)1 40922U 15050C   26263.19421315  .00000091  00000+0  58824-3 0  99922 40922  82.4927  19.0852 0014681 190.2935 169.7846 12.42887156498685

JSON: /api/v1/satellites/40922 · /tle

For live sub-satellite position, see the globe view (requires WebGL).

§ Visibility from observer

Set your observer location to see the next 7 days of passes ≥ 10°. The values pass through the URL so the page stays shareable.

No JS? Fill the form by hand. The geolocation button needs JavaScript.

§ Radio — SatNOGS DB

ModeDescriptionDownlinkUplink
FM UHF Unknown 388.687 MHz

1 transmitter · refreshed weekly from db.satnogs.org